User: anonymous   Login
Location: Arroyo Retuerta
(40.5469°N, 4.3534°W)
Time: 13:54:25
(UTC+00:00)
Language:

OE (NEXTSAT) - Orbit

View from above orbital plane
View from above orbital plane
View from above satellite
View from above satellite

Ground track
Ground track

The orbit data is extracted from the following two-line orbital elements,

1 30774U 07006C   21125.41765942  .00002887  00000-0  66368-4 0  9991
2 30774  46.0000 107.0899 0006229 284.0609  75.9604 15.45649988790618
Epoch (UTC): 05 May 2021 10:01:25
Eccentricity: 0.0006229
inclination: 46.0000°
perigee height: 425 km
apogee height: 434 km
right ascension of ascending node: 107.0899°
argument of perigee: 284.0609°
revolutions per day: 15.45649988
mean anomaly at epoch: 75.9604°
orbit number at epoch: 79061

The dashed part of the orbit path shows where the satellite is in the earth's shadow,  

DLR